Hourly Data Report for October 02, 2016

All times are specified in Local Standard Time (LST). Add 1 hour to adjust for Daylight Saving Time where and when it is observed.

FREDERICTON
NEW BRUNSWICK

45°52'08.000" N
66°32'14.000" W
20.70 m
8101505
71700
YFC

Download Data

Hourly Data (October 2016)
Hourly Data Report for October 2, 2016
Temp Definition
°C
Dew Point Temp Definition
°C
Rel Hum Definition
%
Wind Dir Definition
10's deg

Wind Spd Definition
km/h
Visibility Definition
km
Stn Press Definition
kPa
Hmdx Definition


Wind Chill Definition


Weather Definition


TIME
00:00 Legend Double Dagger 10.4 9.9 96 18 5 16.1 102.17     LegendNANA
01:00 Legend Double Dagger 10.4 10.0 97   0 16.1 102.13     LegendNANA
02:00 Legend Double Dagger 10.0 9.6 97   0 16.1 102.12     LegendNANA
03:00 Legend Double Dagger 9.7 9.4 98 22 8 16.1 102.10     LegendNANA
04:00 Legend Double Dagger 9.9 9.5 97 20 4 16.1 102.09     LegendNANA
05:00 Legend Double Dagger 10.1 9.5 96 34 5 16.1 102.03     LegendNANA
06:00 Legend Double Dagger 10.1 9.7 97 19 9 16.1 101.99     Rain
07:00 Legend Double Dagger 10.0 9.7 98 LegendMM 4 16.1 101.98     LegendNANA
08:00 Legend Double Dagger 10.5 10.1 97 24 5 16.1 101.96     LegendNANA
09:00 Legend Double Dagger 11.4 10.5 94 LegendMM 4 16.1 101.94     LegendNANA
10:00 Legend Double Dagger 12.1 10.7 91   0 16.1 101.92     LegendNANA
11:00 Legend Double Dagger 13.5 10.7 83 23 9 16.1 101.88     LegendNANA
12:00 Legend Double Dagger 15.9 9.6 66 LegendMM 8 16.1 101.82     LegendNANA
13:00 Legend Double Dagger 16.9 6.7 51 15 5 16.1 101.70     LegendNANA
14:00 Legend Double Dagger 17.5 8.8 56 23 9 16.1 101.59     LegendNANA
15:00 Legend Double Dagger 17.5 9.7 60 21 11 16.1 101.50     LegendNANA
16:00 Legend Double Dagger 16.8 9.7 63 20 15 16.1 101.43     LegendNANA
17:00 Legend Double Dagger 15.2 10.4 73 19 9 16.1 101.38     LegendNANA
18:00 Legend Double Dagger 14.4 11.1 80 20 8 16.1 101.32     LegendNANA
19:00 Legend Double Dagger 13.8 10.8 82 21 11 16.1 101.32     LegendNANA
20:00 Legend Double Dagger 13.3 11.0 86 20 11 16.1 101.30     LegendNANA
21:00 Legend Double Dagger 12.6 11.4 92 18 8 16.1 101.25     LegendNANA
22:00 Legend Double Dagger 12.5 11.4 93 17 8 16.1 101.21     LegendNANA
23:00 Legend Double Dagger 12.2 10.6 90 21 9 16.1 101.13     LegendNANA

Notes on Data Quality.

Legend

  • E = Estimated
  • M = Missing
  • NA = Not Available
  • ‡ = Partner data that is not subject to review by the National Climate Archives
Date modified: